This is the latest recevied weather packets stored in our database for station/object KR4KUV. If no packets are shown the sender has not sent any weather packets the latest 10 day(s).
| Time | Temp. | Humidity | Pressure | Rain* | Wind** | Luminosity | Snow |
|---|---|---|---|---|---|---|---|
| 1787705541 | 21.67° C | 92% | 1019.9 hPa | 0 mm | - | 0 W/m² | - |
| 1787705237 | 21.67° C | 92% | 1019.7 hPa | 0 mm | - | 0 W/m² | - |
| 1787704931 | 21.67° C | 92% | 1019.6 hPa | 0 mm | - | 0 W/m² | - |
| 1787704627 | 22.22° C | 92% | 1019.4 hPa | 0 mm | - | 0 W/m² | - |
| 1787704323 | 22.22° C | 91% | 1019.7 hPa | 0 mm | - | 0 W/m² | - |
| 1787704022 | 22.22° C | 90% | 1019.4 hPa | 0 mm | - | 0 W/m² | - |
| 1787703722 | 22.78° C | 89% | 1019.5 hPa | 0 mm | - | 0 W/m² | - |
| 1787703417 | 22.78° C | 88% | 1019.3 hPa | 0 mm | - | 0 W/m² | - |
| 1787703113 | 22.78° C | 88% | 1019.1 hPa | 0 mm | - | 1 W/m² | - |
| 1787702808 | 23.33° C | 87% | 1018.9 hPa | 0 mm | - | 2 W/m² | - |
| 1787702504 | 23.89° C | 87% | 1019 hPa | 0 mm | - | 3 W/m² | - |
| 1787702199 | 23.89° C | 85% | 1019 hPa | 0 mm | - | 5 W/m² | - |
| 1787701893 | 23.89° C | 85% | 1019 hPa | 0 mm | - | 7 W/m² | - |
| 1787701590 | 23.89° C | 84% | 1019 hPa | 0 mm | - | 9 W/m² | - |
| 1787701285 | 23.89° C | 85% | 1018.9 hPa | 0 mm | - | 13 W/m² | - |
| 1787700981 | 24.44° C | 84% | 1019.3 hPa | 0 mm | - | 14 W/m² | - |
| 1787700675 | 25° C | 83% | 1018.9 hPa | 0 mm | - | 17 W/m² | - |
| 1787700372 | 25.56° C | 81% | 1019.3 hPa | 0 mm | - | 20 W/m² | - |
| 1787700068 | 26.11° C | 77% | 1018.9 hPa | 0 mm | - | 23 W/m² | - |
| 1787699763 | 26.67° C | 73% | 1019 hPa | 0 mm | - | 27 W/m² | - |
| 1787699458 | 27.22° C | 68% | 1018.8 hPa | 0 mm | - | 30 W/m² | - |
| 1787699154 | 27.78° C | 65% | 1018.8 hPa | 0 mm | - | 35 W/m² | - |
| 1787698850 | 27.78° C | 64% | 1018.8 hPa | 0 mm | - | 49 W/m² | - |
| 1787698545 | 27.78° C | 62% | 1018.8 hPa | 0 mm | - | 77 W/m² | - |
| 1787698242 | 28.89° C | 61% | 1018.9 hPa | 0 mm | - | 80 W/m² | - |
* Rain latest hour (hover to see other rain measurements)
** Current wind speed in m/s (hover to see current wind gust speed)